Overview Statistics Trail Chart Weather Telemetry Raw packets
 

This is the latest recevied weather packets stored in our database for station/object KGRR-WX. If no packets are shown the sender has not sent any weather packets the latest 10 day(s).

<< 4 5 6 7 8 9 10 >>
Time Temp. Humidity Pressure Rain* Wind** Luminosity Snow
1788506105 18.89° C 93% 984.9 hPa 0 mm - - -
1788505205 18.89° C 93% 984.9 hPa 0 mm - - -
1788504305 18.89° C 93% 986.2 hPa 0 mm - - -
1788503436 18.33° C 93% 986.1 hPa 0 mm - - -
1788502505 18.89° C 93% 986.1 hPa 0 mm - - -
1788501605 18.89° C 93% 986.1 hPa 0 mm - - -
1788500705 18.89° C 91% 987 hPa 0 mm - - -
1788499805 18.89° C 92% 985.7 hPa 0 mm - - -
1788498905 18.89° C 92% 985.7 hPa 0 mm - - -
1788498006 18.89° C 92% 985.7 hPa 0 mm - - -
1788497105 18.89° C 91% 986.2 hPa 0 mm - - -
1788496205 18.89° C 91% 985.7 hPa 0 mm - - -
1788495305 18.89° C 91% 985.7 hPa 0 mm - - -
1788494405 19.44° C 91% 985.7 hPa 0 mm - - -
1788493506 19.44° C 91% 986.5 hPa 0 mm - - -
1788492605 19.44° C 91% 986.2 hPa 0 mm - - -
1788491705 19.44° C 91% 986.2 hPa 0 mm - - -
1788490804 20° C 91% 986.2 hPa 0 mm - - -
1788489905 20° C 88% 986 hPa 0 mm - - -
1788489005 20.56° C 91% 985.4 hPa 0 mm - - -
1788488105 20.56° C 91% 985.4 hPa 0 mm - - -
1788487206 20.56° C 91% 985.4 hPa 0 mm - - -
1788486305 21.11° C 93% 984.9 hPa 0 mm - - -
1788485405 21.11° C 93% 984.9 hPa 0 mm - - -
1788484505 21.67° C 93% 985 hPa 0 mm - - -

* Rain latest hour (hover to see other rain measurements)
** Current wind speed in m/s (hover to see current wind gust speed)